When you browse on this site, cookies collect data to enhance your experience and personalize the content and advertising you see.
Visit our Privacy Policy to learn more. By continuing to use the site, you agree to this use of cookies and data.
  • în România
  • Lista ţărilor
  • Pe 7 zile
  • Temperatura apei
  • Hartă satelitară
  • Meteo pe hartă
  • Widget-uri
  • user-avatar
    Intrare

    Meteo pe oră la Арнювиль ле Гонес

    Astăzi, 23 Aprilie, Marţi

    Timp Temperatura Precipitaţii Vânt Presiune Umiditate
    00:00 +17°C° 0 mm 2 m/s 743 mmHg 65%
    01:00 +16°C° 0 mm 2 m/s 743 mmHg 67%
    02:00 +16°C° 0 mm 2 m/s 742 mmHg 69%
    03:00 +15°C° 0 mm 2 m/s 742 mmHg 71%
    04:00 +15°C° 0 mm 1 m/s 742 mmHg 71%
    05:00 +15°C° 0 mm 1 m/s 742 mmHg 71%
    06:00 +15°C° 0 mm 1 m/s 742 mmHg 71%
    07:00 +16°C° 0 mm 1 m/s 742 mmHg 66%
    08:00 +18°C° 0 mm 1 m/s 742 mmHg 61%
    09:00 +19°C° 0 mm 2 m/s 742 mmHg 57%
    10:00 +20°C° 0 mm 2 m/s 742 mmHg 53%
    11:00 +23°C° 0 mm 2 m/s 741 mmHg 50%
    12:00 +24°C° 0 mm 2 m/s 741 mmHg 46%
    13:00 +24°C° 0 mm 2 m/s 741 mmHg 46%
    14:00 +25°C° 0 mm 2 m/s 741 mmHg 46%
    15:00 +25°C° 0 mm 2 m/s 740 mmHg 46%
    16:00 +24°C° 0.2 mm 2 m/s 740 mmHg 51%
    17:00 +23°C° 0.2 mm 2 m/s 740 mmHg 55%
    18:00 +21°C° 0.2 mm 2 m/s 740 mmHg 60%
    19:00 +20°C° 0.5 mm 2 m/s 740 mmHg 64%
    20:00 +19°C° 0.5 mm 3 m/s 740 mmHg 68%
    21:00 +18°C° 0.5 mm 3 m/s 740 mmHg 72%
    22:00 +18°C° 0.2 mm 3 m/s 740 mmHg 72%
    23:00 +17°C° 0.2 mm 3 m/s 741 mmHg 72%

    Mâine, 24 Aprilie, Miercuri

    Timp Temperatura Precipitaţii Vânt Presiune Umiditate
    00:00 +17°C° 0.2 mm 3 m/s 741 mmHg 73%
    01:00 +15°C° 0 mm 4 m/s 740 mmHg 74%
    02:00 +14°C° 0 mm 4 m/s 740 mmHg 75%
    03:00 +14°C° 0 mm 4 m/s 740 mmHg 76%
    04:00 +14°C° 0 mm 4 m/s 740 mmHg 77%
    05:00 +14°C° 0 mm 5 m/s 741 mmHg 79%
    06:00 +14°C° 0 mm 5 m/s 741 mmHg 80%
    07:00 +14°C° 0.2 mm 5 m/s 742 mmHg 77%
    08:00 +14°C° 0.2 mm 5 m/s 742 mmHg 75%
    09:00 +14°C° 0.2 mm 5 m/s 743 mmHg 72%
    10:00 +14°C° 0.2 mm 5 m/s 743 mmHg 69%
    11:00 +15°C° 0.2 mm 5 m/s 743 mmHg 66%
    12:00 +15°C° 0.2 mm 5 m/s 744 mmHg 62%
    13:00 +16°C° 0.3 mm 6 m/s 744 mmHg 60%
    14:00 +16°C° 0.3 mm 6 m/s 744 mmHg 57%
    15:00 +16°C° 0.3 mm 6 m/s 744 mmHg 54%
    16:00 +16°C° 0.1 mm 6 m/s 744 mmHg 56%
    17:00 +15°C° 0.1 mm 6 m/s 744 mmHg 59%
    18:00 +14°C° 0.1 mm 5 m/s 744 mmHg 62%
    19:00 +14°C° 0 mm 5 m/s 745 mmHg 64%
    20:00 +13°C° 0 mm 5 m/s 745 mmHg 66%
    21:00 +12°C° 0 mm 4 m/s 745 mmHg 68%
    22:00 +12°C° 0 mm 5 m/s 745 mmHg 66%
    23:00 +13°C° 0 mm 5 m/s 745 mmHg 64%

    Poimâine, 25 Aprilie, Joi

    Timp Temperatura Precipitaţii Vânt Presiune Umiditate
    00:00 +13°C° 0 mm 6 m/s 745 mmHg 61%
    01:00 +13°C° 0.1 mm 6 m/s 744 mmHg 60%
    02:00 +13°C° 0.1 mm 6 m/s 744 mmHg 59%
    03:00 +13°C° 0.1 mm 6 m/s 744 mmHg 57%
    04:00 +13°C° 0.4 mm 6 m/s 744 mmHg 62%
    05:00 +12°C° 0.4 mm 7 m/s 744 mmHg 66%
    06:00 +11°C° 0.4 mm 7 m/s 744 mmHg 70%
    07:00 +12°C° 0 mm 7 m/s 745 mmHg 67%
    08:00 +12°C° 0 mm 7 m/s 746 mmHg 64%
    09:00 +14°C° 0 mm 7 m/s 746 mmHg 60%
    10:00 +14°C° 0 mm 7 m/s 747 mmHg 56%
    11:00 +15°C° 0 mm 7 m/s 747 mmHg 51%
    12:00 +16°C° 0 mm 6 m/s 747 mmHg 47%
    13:00 +15°C° 0.2 mm 6 m/s 748 mmHg 51%
    14:00 +14°C° 0.2 mm 6 m/s 748 mmHg 55%
    15:00 +13°C° 0.2 mm 5 m/s 749 mmHg 59%
    16:00 +13°C° 0 mm 5 m/s 749 mmHg 59%
    17:00 +13°C° 0 mm 5 m/s 750 mmHg 59%
    18:00 +13°C° 0 mm 5 m/s 750 mmHg 60%
    19:00 +12°C° 0 mm 5 m/s 750 mmHg 63%
    20:00 +12°C° 0 mm 5 m/s 751 mmHg 66%
    21:00 +10°C° 0 mm 5 m/s 751 mmHg 68%
    22:00 +10°C° 0 mm 5 m/s 751 mmHg 69%
    23:00 +10°C° 0 mm 5 m/s 751 mmHg 70%

    26 Aprilie, Vineri

    Timp Temperatura Precipitaţii Vânt Presiune Umiditate
    00:00 +9°C° 0 mm 5 m/s 752 mmHg 71%
    01:00 +9°C° 0 mm 6 m/s 752 mmHg 71%
    02:00 +9°C° 0 mm 6 m/s 751 mmHg 71%
    03:00 +9°C° 0 mm 6 m/s 751 mmHg 71%
    04:00 +9°C° 0 mm 6 m/s 751 mmHg 72%
    05:00 +9°C° 0 mm 7 m/s 751 mmHg 73%
    06:00 +9°C° 0 mm 7 m/s 751 mmHg 74%
    07:00 +9°C° 0.1 mm 7 m/s 751 mmHg 74%
    08:00 +10°C° 0.1 mm 7 m/s 751 mmHg 74%
    09:00 +10°C° 0.1 mm 7 m/s 752 mmHg 74%
    10:00 +11°C° 0.1 mm 7 m/s 752 mmHg 72%
    11:00 +12°C° 0.1 mm 7 m/s 752 mmHg 70%
    12:00 +14°C° 0.1 mm 6 m/s 752 mmHg 68%
    13:00 +14°C° 0.5 mm 6 m/s 752 mmHg 68%
    14:00 +14°C° 0.5 mm 6 m/s 752 mmHg 68%
    15:00 +15°C° 0.5 mm 6 m/s 753 mmHg 67%
    16:00 +14°C° 0.3 mm 6 m/s 753 mmHg 70%
    17:00 +14°C° 0.3 mm 5 m/s 753 mmHg 72%
    18:00 +13°C° 0.3 mm 4 m/s 754 mmHg 75%
    19:00 +13°C° 0.4 mm 5 m/s 755 mmHg 76%
    20:00 +12°C° 0.4 mm 5 m/s 756 mmHg 78%
    21:00 +10°C° 0.4 mm 6 m/s 756 mmHg 80%
    22:00 +10°C° 0 mm 6 m/s 757 mmHg 80%
    23:00 +9°C° 0 mm 5 m/s 758 mmHg 80%

    27 Aprilie, Sâmbătă

    Timp Temperatura Precipitaţii Vânt Presiune Umiditate
    00:00 +8°C° 0 mm 5 m/s 758 mmHg 81%
    01:00 +8°C° 0 mm 5 m/s 759 mmHg 80%
    02:00 +7°C° 0 mm 5 m/s 759 mmHg 80%
    03:00 +7°C° 0 mm 4 m/s 760 mmHg 80%
    04:00 +7°C° 0 mm 4 m/s 760 mmHg 79%
    05:00 +7°C° 0 mm 4 m/s 761 mmHg 78%
    06:00 +6°C° 0 mm 4 m/s 761 mmHg 77%
    07:00 +8°C° 0 mm 4 m/s 762 mmHg 72%
    08:00 +10°C° 0 mm 4 m/s 762 mmHg 66%
    09:00 +12°C° 0 mm 4 m/s 763 mmHg 61%
    10:00 +12°C° 0.1 mm 4 m/s 763 mmHg 60%
    11:00 +13°C° 0.1 mm 4 m/s 763 mmHg 60%
    12:00 +14°C° 0.1 mm 4 m/s 763 mmHg 59%
    13:00 +14°C° 0.3 mm 4 m/s 763 mmHg 63%
    14:00 +14°C° 0.3 mm 4 m/s 763 mmHg 67%
    15:00 +14°C° 0.3 mm 5 m/s 763 mmHg 71%
    16:00 +14°C° 0.1 mm 4 m/s 763 mmHg 73%
    17:00 +14°C° 0.1 mm 4 m/s 762 mmHg 75%
    18:00 +14°C° 0.1 mm 3 m/s 762 mmHg 77%
    19:00 +13°C° 0.1 mm 3 m/s 763 mmHg 80%
    20:00 +13°C° 0.1 mm 2 m/s 763 mmHg 83%
    21:00 +12°C° 0.1 mm 2 m/s 764 mmHg 87%
    22:00 +12°C° 0 mm 2 m/s 764 mmHg 87%
    23:00 +12°C° 0 mm 2 m/s 764 mmHg 87%

    28 Aprilie, Duminică

    Timp Temperatura Precipitaţii Vânt Presiune Umiditate
    00:00 +10°C° 0 mm 2 m/s 764 mmHg 87%
    01:00 +10°C° 0 mm 2 m/s 764 mmHg 88%
    02:00 +9°C° 0 mm 2 m/s 764 mmHg 90%
    03:00 +9°C° 0 mm 2 m/s 764 mmHg 91%
    04:00 +9°C° 0 mm 2 m/s 764 mmHg 91%
    05:00 +10°C° 0 mm 1 m/s 764 mmHg 90%
    06:00 +10°C° 0 mm 1 m/s 764 mmHg 89%
    07:00 +11°C° 0 mm 1 m/s 764 mmHg 82%
    08:00 +13°C° 0 mm 2 m/s 765 mmHg 76%
    09:00 +14°C° 0 mm 2 m/s 765 mmHg 69%
    10:00 +16°C° 0 mm 2 m/s 764 mmHg 63%
    11:00 +17°C° 0 mm 2 m/s 764 mmHg 57%
    12:00 +18°C° 0 mm 2 m/s 764 mmHg 51%
    13:00 +19°C° 0 mm 3 m/s 763 mmHg 51%
    14:00 +19°C° 0 mm 3 m/s 763 mmHg 50%
    15:00 +20°C° 0 mm 3 m/s 763 mmHg 49%
    16:00 +19°C° 0 mm 2 m/s 762 mmHg 53%
    17:00 +18°C° 0 mm 2 m/s 762 mmHg 58%
    18:00 +18°C° 0 mm 2 m/s 762 mmHg 62%
    19:00 +18°C° 0 mm 1 m/s 762 mmHg 67%
    20:00 +15°C° 0 mm 1 m/s 761 mmHg 72%
    21:00 +14°C° 0 mm 1 m/s 761 mmHg 77%
    22:00 +13°C° 0 mm 0 m/s 761 mmHg 79%
    23:00 +12°C° 0 mm 0 m/s 760 mmHg 80%
    Arată mai mult